FW3725 Weather Reports


time (UTC)temp
C
wind
direction
speed
KPH
gust
KPH
rain 1hr
cm
rain 24hr
cm
rain mn
cm
humidity
%
barometer
mb
20260503214513 16 186 0.0 0.0 0.00 0.00 0.00 62 1013.3
20260503213011 16 159 0.0 0.0 0.00 0.00 0.00 62 1013.3
20260503211517 17 196 0.0 0.0 0.00 0.00 0.00 62 1013.3
20260503210017 17 178 0.0 0.0 0.00 0.00 0.00 63 1013.3
20260503204509 17 175 0.0 0.0 0.00 0.00 0.00 62 1013.3
20260503203014 17 171 0.0 0.0 0.00 0.00 0.00 62 1013.5
20260503201510 17 105 0.0 0.0 0.00 0.00 0.00 62 1013.5
20260503200008 17 184 0.0 0.0 0.00 0.00 0.00 62 1013.5
20260503194509 17 199 0.0 0.0 0.00 0.00 0.00 63 1013.6
20260503193007 17 149 0.0 0.0 0.00 0.00 0.00 64 1013.6
20260503191506 16 202 0.0 0.0 0.00 0.00 0.00 65 1013.7
20260503190006 17 325 0.0 0.0 0.00 0.00 0.00 65 1013.8
20260503184504 16 282 0.0 0.0 0.00 0.00 0.00 65 1013.7
20260503183107 16 300 0.0 0.0 0.00 0.00 0.00 68 1013.9
20260503181559 16 329 0.0 0.0 0.00 0.00 0.00 68 1013.9
20260503180054 16 277 0.0 0.0 0.00 0.00 0.00 67 1013.9
20260503174608 15 176 0.0 0.0 0.00 0.00 0.00 69 1013.8
20260503173058 15 298 0.0 0.0 0.00 0.00 0.00 71 1013.8
20260503171545 13 281 0.0 0.0 0.00 0.00 0.00 74 1013.9
20260503090106 12 277 0.0 0.0 0.00 0.00 0.00 80 1012.3
20260503081558 12 284 0.0 0.0 0.00 0.00 0.00 80 1012.6
20260503071607 12 298 0.0 0.0 0.00 0.00 0.00 79 1012.9
20260503060144 12 270 0.0 0.0 0.00 0.00 0.00 79 1013.0
20260503054554 12 74 0.0 0.0 0.00 0.00 0.00 79 1013.2
20260503053041 13 54 0.0 1.6 0.00 0.00 0.00 79 1013.1
20260503051548 13 283 0.0 3.2 0.00 0.00 0.00 79 1013.2
20260503050040 13 30 0.0 0.0 0.00 0.00 0.00 78 1013.1
20260503044539 13 277 0.0 1.6 0.00 0.00 0.00 78 1012.9
20260503043041 13 283 0.0 1.6 0.00 0.00 0.00 78 1012.8
20260503041539 13 269 0.0 4.8 0.00 0.00 0.00 78 1012.6
20260503040040 13 265 0.0 12.9 0.00 0.00 0.00 78 1012.4
20260503034544 13 53 0.0 4.8 0.00 0.00 0.00 77 1012.1
20260503033050 13 271 0.0 0.0 0.00 0.00 0.00 77 1012.0
20260503031538 13 175 0.0 4.8 0.00 0.00 0.00 77 1011.9
20260503030038 13 281 0.0 1.6 0.00 0.00 0.00 77 1011.8
20260503024544 13 225 0.0 3.2 0.00 0.00 0.00 76 1011.6
20260503023034 14 80 0.0 3.2 0.00 0.00 0.00 75 1011.5
20260503021535 15 274 0.0 0.0 0.00 0.00 0.00 75 1011.4
20260503020033 15 239 0.0 1.6 0.00 0.00 0.00 74 1011.4
20260503014533 16 271 0.0 1.6 0.00 0.00 0.00 73 1011.4
20260503013036 16 335 0.0 3.2 0.00 0.00 0.00 73 1011.5
20260503011531 16 287 0.0 0.0 0.00 0.00 0.00 72 1011.4
20260503010033 16 276 0.0 4.8 0.00 0.00 0.00 72 1011.4
20260503004536 17 72 0.0 1.6 0.00 0.00 0.00 70 1011.4
20260503003036 17 276 0.0 9.7 0.00 0.00 0.00 70 1011.5
20260503001529 17 69 0.0 3.2 0.00 0.00 0.00 70 1011.4
20260503000028 17 89 0.0 8.0 0.00 0.00 0.00 69 1011.6
20260502234533 18 55 0.0 4.8 0.00 0.00 0.00 70 1011.5
20260502233027 18 261 0.0 3.2 0.00 0.00 0.00 68 1011.7
20260502231528 18 78 0.0 11.3 0.00 0.00 0.00 69 1011.8
20260502230023 18 271 0.0 8.0 0.00 0.00 0.00 70 1012.1
20260502224521 18 86 0.0 9.7 0.00 0.00 0.00 67 1012.3
20260502223019 18 248 0.0 6.4 0.00 0.00 0.00 68 1012.5
20260502221516 18 217 0.0 8.0 0.00 0.00 0.00 68 1013.0
20260502220021 18 262 0.0 6.4 0.00 0.00 0.00 69 1013.1